User: anonymous   Login
Location: Unspecified
(0.0000°N, 0.0000°E)
Time: 05:48:23
(UTC+02:00)
Language:

Helios 1A Rocket - Orbit

View from above orbital plane
View from above orbital plane
View from above satellite
View from above satellite

Ground track
Ground track

The orbit data is extracted from the following two-line orbital elements,

1 23608U 95033D   15111.18265093  .00004458  00000-0  41973-3 0  9990
2 23608 098.2564 353.6455 0017161 335.8502 024.1910 14.94297493 69989
Epoch (UTC): 21 April 2015 04:23:01
Eccentricity: 0.0017161
inclination: 98.2564°
perigee height: 572 km
apogee height: 596 km
right ascension of ascending node: 353.6455°
argument of perigee: 335.8502°
revolutions per day: 14.94297493
mean anomaly at epoch: 24.1910°
orbit number at epoch: 6998

The dashed part of the orbit path shows where the satellite is in the earth's shadow,  

DLR